Location: Brantley
(31.5822°N, 86.2569°W)
Time: 18:41:41
(UTC+00:00)

Vanguard 3 - Pass Details

Date: 18 February 2026
Orbit: 507 x 3205 km, 33.4° (Epoch: 9 March)

Event Time Altitude Azimuth Distance (km) Brightness Sun altitude
Rises 03:47:23 0° 276° (W) 2,808 - -53.7°
Reaches altitude 10° 03:50:11 10° 258° (WSW) 1,762 - -54.3°
Maximum altitude 03:53:01 20° 209° (SSW) 1,205 - -54.8°
Drops below altitude 10° 03:55:49 10° 159° (SSE) 1,742 - -55.3°
Sets 03:58:34 0° 142° (SE) 2,762 - -55.8°
